| time (UTC) | temp C | wind direction | speed KPH | gust KPH | rain 1hr cm | rain 24hr cm | rain mn cm | humidity % | barometer mb |
| 20260506194542 | 15 | 0 | 0.0 | 9.7 | 0.00 | 0.00 | 0.00 | 54 | 1016.8 |
| 20260506193039 | 16 | 0 | 3.2 | 12.9 | 0.00 | 0.00 | 0.00 | 54 | 1017.0 |
| 20260506191538 | 16 | 38 | 0.0 | 12.9 | 0.00 | 0.00 | 0.00 | 54 | 1017.2 |
| 20260506190045 | 16 | 0 | 1.6 | 9.7 | 0.00 | 0.00 | 0.00 | 54 | 1017.4 |
| 20260506184542 | 15 | 8 | 1.6 | 12.9 | 0.00 | 0.00 | 0.00 | 55 | 1017.5 |
| 20260506183039 | 16 | 278 | 0.0 | 9.7 | 0.00 | 0.00 | 0.00 | 59 | 1017.7 |
| 20260506181539 | 15 | 63 | 0.0 | 9.7 | 0.00 | 0.00 | 0.00 | 59 | 1018.3 |
| 20260506180105 | 15 | 108 | 1.6 | 6.4 | 0.00 | 0.00 | 0.00 | 59 | 1018.6 |
| 20260506174543 | 15 | 0 | 1.6 | 9.7 | 0.00 | 0.00 | 0.00 | 62 | 1018.7 |
| 20260506173054 | 15 | 0 | 0.0 | 6.4 | 0.00 | 0.00 | 0.00 | 61 | 1018.6 |
| 20260506171545 | 15 | 37 | 1.6 | 9.7 | 0.00 | 0.00 | 0.00 | 58 | 1018.6 |
| 20260506170041 | 15 | 266 | 0.0 | 11.3 | 0.00 | 0.00 | 0.00 | 58 | 1018.4 |
| 20260506164544 | 15 | 61 | 0.0 | 9.7 | 0.00 | 0.00 | 0.00 | 60 | 1018.7 |
| 20260506163050 | 14 | 250 | 1.6 | 9.7 | 0.00 | 0.00 | 0.00 | 62 | 1018.2 |
| 20260506161553 | 13 | 309 | 4.8 | 16.1 | 0.00 | 0.00 | 0.00 | 64 | 1017.8 |
| 20260506160046 | 12 | 59 | 3.2 | 14.5 | 0.00 | 0.00 | 0.00 | 65 | 1017.2 |
| 20260506154542 | 12 | 63 | 3.2 | 9.7 | 0.00 | 0.03 | 0.00 | 66 | 1017.5 |
| 20260506153046 | 12 | 102 | 0.0 | 11.3 | 0.00 | 0.03 | 0.00 | 71 | 1017.7 |
| 20260506151547 | 11 | 0 | 4.8 | 14.5 | 0.00 | 0.03 | 0.00 | 67 | 1017.5 |
| 20260506150046 | 11 | 81 | 1.6 | 9.7 | 0.00 | 0.03 | 0.00 | 73 | 1017.4 |
| 20260506144600 | 10 | 0 | 1.6 | 9.7 | 0.00 | 0.03 | 0.00 | 74 | 1017.3 |
| 20260506143050 | 10 | 63 | 1.6 | 12.9 | 0.00 | 0.03 | 0.00 | 75 | 1017.4 |
| 20260506141545 | 9 | 56 | 0.0 | 11.3 | 0.00 | 0.03 | 0.00 | 78 | 1017.5 |
| 20260506140048 | 9 | 23 | 3.2 | 9.7 | 0.00 | 0.03 | 0.00 | 77 | 1017.7 |
| 20260506134545 | 8 | 51 | 1.6 | 11.3 | 0.00 | 0.03 | 0.00 | 80 | 1017.4 |
| 20260506133046 | 8 | 0 | 0.0 | 12.9 | 0.00 | 0.03 | 0.00 | 83 | 1017.6 |
| 20260506131544 | 7 | 39 | 1.6 | 9.7 | 0.00 | 0.03 | 0.00 | 85 | 1017.4 |
| 20260506130052 | 7 | 0 | 1.6 | 11.3 | 0.00 | 0.03 | 0.00 | 87 | 1017.2 |
| 20260506124550 | 7 | 0 | 1.6 | 11.3 | 0.00 | 0.08 | 0.00 | 87 | 1017.0 |
| 20260506123039 | 7 | 342 | 1.6 | 9.7 | 0.00 | 0.08 | 0.00 | 87 | 1017.0 |
| 20260506121548 | 7 | 15 | 1.6 | 17.7 | 0.00 | 0.08 | 0.00 | 87 | 1017.0 |
| 20260506120047 | 7 | 315 | 1.6 | 14.5 | 0.00 | 0.08 | 0.00 | 88 | 1017.2 |
| 20260506114539 | 7 | 27 | 1.6 | 11.3 | 0.00 | 0.08 | 0.00 | 88 | 1016.8 |
| 20260506113038 | 7 | 105 | 1.6 | 9.7 | 0.00 | 0.08 | 0.00 | 89 | 1016.7 |
| 20260506111547 | 7 | 336 | 3.2 | 9.7 | 0.00 | 0.08 | 0.00 | 88 | 1016.6 |
| 20260506110046 | 7 | 88 | 1.6 | 9.7 | 0.00 | 0.08 | 0.00 | 88 | 1016.2 |
| 20260506104537 | 7 | 0 | 0.0 | 9.7 | 0.00 | 0.13 | 0.00 | 88 | 1015.7 |
| 20260506103043 | 7 | 0 | 1.6 | 9.7 | 0.00 | 0.13 | 0.00 | 88 | 1015.7 |
| 20260506101541 | 7 | 0 | 1.6 | 9.7 | 0.00 | 0.13 | 0.00 | 88 | 1015.0 |
| 20260506100038 | 7 | 0 | 0.0 | 8.0 | 0.00 | 0.13 | 0.00 | 88 | 1014.6 |
| 20260506094558 | 7 | 338 | 0.0 | 8.0 | 0.00 | 0.23 | 0.00 | 87 | 1014.5 |
| 20260506093047 | 7 | 326 | 1.6 | 11.3 | 0.00 | 0.23 | 0.00 | 86 | 1014.5 |
| 20260506091545 | 7 | 0 | 1.6 | 6.4 | 0.00 | 0.23 | 0.00 | 85 | 1014.3 |
| 20260506090044 | 7 | 0 | 0.0 | 4.8 | 0.00 | 0.23 | 0.00 | 86 | 1013.6 |
| 20260506084540 | 7 | 90 | 0.0 | 3.2 | 0.00 | 0.81 | 0.00 | 86 | 1013.3 |
| 20260506083042 | 7 | 82 | 0.0 | 4.8 | 0.00 | 0.81 | 0.00 | 86 | 1013.8 |
| 20260506081544 | 7 | 0 | 0.0 | 6.4 | 0.00 | 0.81 | 0.00 | 85 | 1013.5 |
| 20260506073055 | 7 | 256 | 0.0 | 8.0 | 0.00 | 1.42 | 0.00 | 86 | 1012.8 |
| 20260506071541 | 7 | 0 | 1.6 | 9.7 | 0.00 | 1.42 | 0.00 | 86 | 1012.7 |
| 20260506061545 | 7 | 332 | 3.2 | 14.5 | 0.00 | 2.11 | 0.00 | 89 | 1012.9 |
| 20260506044551 | 7 | 0 | 1.6 | 9.7 | 0.00 | 2.18 | 2.18 | 89 | 1013.6 |
| 20260506043044 | 7 | 346 | 0.0 | 8.0 | 0.00 | 2.18 | 2.18 | 90 | 1013.0 |
| 20260506041550 | 7 | 0 | 3.2 | 9.7 | 0.00 | 2.18 | 2.18 | 90 | 1013.0 |
| 20260506040049 | 7 | 0 | 0.0 | 8.0 | 0.00 | 2.18 | 2.18 | 90 | 1012.6 |
| 20260506034552 | 7 | 0 | 0.0 | 6.4 | 0.00 | 2.18 | 2.18 | 90 | 1012.5 |
| 20260506033053 | 7 | 0 | 0.0 | 11.3 | 0.00 | 2.18 | 2.18 | 89 | 1012.4 |
| 20260506031544 | 7 | 59 | 3.2 | 11.3 | 0.00 | 2.18 | 2.18 | 90 | 1011.8 |
| 20260506030042 | 7 | 56 | 1.6 | 11.3 | 0.00 | 2.18 | 2.18 | 90 | 1011.6 |
| 20260506024603 | 7 | 70 | 1.6 | 11.3 | 0.00 | 2.18 | 2.18 | 90 | 1011.7 |
| 20260506023048 | 7 | 337 | 1.6 | 14.5 | 0.00 | 2.18 | 2.18 | 89 | 1011.4 |
| 20260506021546 | 7 | 44 | 0.0 | 11.3 | 0.00 | 2.18 | 2.18 | 89 | 1011.2 |
| 20260506020037 | 7 | 0 | 1.6 | 11.3 | 0.00 | 2.18 | 2.18 | 89 | 1010.9 |
| 20260506014544 | 7 | 99 | 1.6 | 9.7 | 0.00 | 2.18 | 2.18 | 90 | 1011.0 |
| 20260506013047 | 7 | 60 | 3.2 | 12.9 | 0.00 | 2.18 | 2.18 | 90 | 1010.8 |
| 20260506011604 | 7 | 354 | 3.2 | 11.3 | 0.00 | 2.18 | 2.18 | 90 | 1010.3 |
| 20260506010039 | 7 | 85 | 1.6 | 9.7 | 0.00 | 2.18 | 2.18 | 90 | 1010.6 |
| 20260506004546 | 7 | 65 | 3.2 | 11.3 | 0.00 | 2.18 | 2.18 | 90 | 1010.2 |
| 20260506003043 | 7 | 66 | 0.0 | 12.9 | 0.00 | 2.18 | 2.18 | 90 | 1010.3 |
| 20260506001544 | 7 | 0 | 3.2 | 11.3 | 0.00 | 2.18 | 2.18 | 89 | 1010.3 |
| 20260506000051 | 8 | 356 | 0.0 | 14.5 | 0.00 | 2.18 | 2.18 | 88 | 1010.2 |
| 20260505234540 | 8 | 1 | 3.2 | 11.3 | 0.00 | 2.18 | 2.18 | 88 | 1010.0 |
| 20260505233038 | 8 | 359 | 6.4 | 17.7 | 0.00 | 2.18 | 2.18 | 87 | 1009.6 |
| 20260505231541 | 8 | 58 | 1.6 | 14.5 | 0.00 | 2.18 | 2.18 | 87 | 1009.4 |
| 20260505230038 | 8 | 96 | 3.2 | 14.5 | 0.00 | 2.18 | 2.18 | 85 | 1009.5 |
| 20260505224546 | 8 | 8 | 0.0 | 14.5 | 0.00 | 2.18 | 2.18 | 84 | 1009.4 |
| 20260505223042 | 8 | 65 | 3.2 | 11.3 | 0.00 | 2.18 | 2.18 | 84 | 1009.1 |
| 20260505221546 | 9 | 4 | 0.0 | 16.1 | 0.00 | 2.18 | 2.18 | 84 | 1008.8 |
| 20260505220059 | 9 | 39 | 1.6 | 22.5 | 0.00 | 2.18 | 2.18 | 84 | 1008.9 |
| 20260505214551 | 9 | 97 | 4.8 | 14.5 | 0.00 | 2.18 | 2.18 | 84 | 1008.8 |
| 20260505213044 | 9 | 91 | 6.4 | 17.7 | 0.00 | 2.18 | 2.18 | 85 | 1008.8 |
| 20260505211545 | 9 | 345 | 0.0 | 16.1 | 0.00 | 2.18 | 2.18 | 87 | 1008.7 |
| 20260505210046 | 9 | 91 | 4.8 | 19.3 | 0.00 | 2.18 | 2.18 | 86 | 1008.7 |
| 20260505204555 | 10 | 11 | 3.2 | 14.5 | 0.00 | 2.18 | 2.18 | 88 | 1008.7 |
| 20260505203046 | 10 | 38 | 4.8 | 17.7 | 0.00 | 2.18 | 2.18 | 87 | 1008.7 |
| 20260505201548 | 10 | 42 | 3.2 | 20.9 | 0.00 | 2.18 | 2.18 | 88 | 1008.6 |
| 20260505200042 | 10 | 31 | 4.8 | 16.1 | 0.00 | 2.18 | 2.18 | 88 | 1008.8 |